Regional Weather Roundup
Issued by NWS

Home | Current Version | Previous Version | Text Only | Print | Product List | Glossary Off
Versions: 1 2 3 4 5 6 7 8 9 10 11 12 13 14 15 16 17 18 19 20 21 22 23 24 25 26 27 28 29 30 31 32 33 34 35 36 37 38 39 40 41 42 43 44 45 46 47 48 49 50

240
ASUS43 KFSD 181610
RWRSD

WEATHER ROUNDUP FOR SOUTH DAKOTA
NATIONAL WEATHER SERVICE SIOUX FALLS SD
1000 AM CST SAT NOV 18 2017

NOTE: "FAIR" INDICATES FEW OR NO CLOUDS BELOW 12,000 FEET WITH NO
SIGNIFICANT WEATHER AND/OR OBSTRUCTIONS TO VISIBILITY.


SDZ001>005-009-010-012>017-181700-
NORTHWEST AND NORTH CENTRAL SOUTH DAKOTA

CITY           SKY/WX    TMP DP  RH WIND       PRES   REMARKS
BUFFALO          N/A     28  22  78 NW16      30.05R WCI  16
FAITH            N/A     26  21  81 N15       30.12R WCI  14
MOBRIDGE       SUNNY     24  15  68 NW14      30.10R WCI  12
$$

SDZ012>016-024>037-041>051-057-063-072>074-181700-
SOUTHWEST AND SOUTH CENTRAL SOUTH DAKOTA

CITY           SKY/WX    TMP DP  RH WIND       PRES   REMARKS
RAPID CTY ARPT SUNNY     39  18  42 NW12G17   30.13R
PIERRE         SUNNY     30  23  75 N22       30.11R WCI  17
CUSTER         SUNNY     28  14  55 NW9G17    30.09R WCI  19
ELLSWORTH AFB  SUNNY     39  17  40 NW20G31   30.12R
PHILIP         SUNNY     36  28  73 NW13      30.14R
PINE RIDGE     SUNNY     34  26  72 NW6       30.17R WCI  29
SPEARFISH      FAIR      36  16  44 W17       30.12R
WINNER         FAIR      38  30  73 NW25G32   30.09R
$$

SDZ004>011-016>023-039-040-181700-
NORTHEAST SOUTH DAKOTA

CITY           SKY/WX    TMP DP  RH WIND       PRES   REMARKS
ABERDEEN       SUNNY     24  15  68 NW22      30.07R WCI   9
WATERTOWN      CLOUDY    25  16  68 N23G30    29.97R WCI  10
BROOKINGS      PTSUNNY   29  20  69 N21       29.95R WCI  16
SISSETON         N/A     24  15  68 NW23G35   29.99R WCI   9
$$

SDZ017-020-022-023-036>040-048>070-181700-
SOUTHEAST SOUTH DAKOTA

CITY           SKY/WX    TMP DP  RH WIND       PRES   REMARKS
SIOUX FALLS    MOSUNNY   36  23  59 N23       29.95R
HURON          MOSUNNY   30  20  66 NW14      30.05R WCI  19
CHAMBERLAIN    MOSUNNY   35  28  74 NW23G31   30.09R WCI  23
MITCHELL       CLOUDY    31  24  75 NW20G28   30.05R WCI  19
YANKTON        SUNNY     36  28  73 NW21G28   29.98R
$$

ABBREVIATIONS USED IN REMARKS
   TC - TEMPERATURE IN CELSIUS
  WCI - WIND CHILL INDEX
   HX - HEAT INDEX
  VSB - VISIBILITY





USA.gov is the U.S. government's official web portal to all federal, state and local government web resources and services.